,,PA_Meas_PMT16A,,PR_Meas_QMR101_102,,RH_Meas_QMH101,,SR_Meas_QMS101,,TA_Meas_QMH101,,GenWind,,GenWind,
time,status,PA,status,PR,status,RH,status,SR,status,TA,status,DirAvg,status,SpdAvg,
2013-04-08, 00:00:04,VALID,917.359,VALID,0,VALID,95.0488,VALID,0,VALID,20.1513,VALID,33,VALID,0,
2013-04-08, 00:01:04,VALID,917.305,VALID,0,VALID,95.0716,VALID,0,VALID,20.1513,VALID,33,VALID,0,
2013-04-08, 00:02:04,VALID,917.289,VALID,0,VALID,95.1707,VALID,0,VALID,20.1919,VALID,33,VALID,0,
2013-04-08, 00:03:04,VALID,917.265,VALID,0,VALID,95.1707,VALID,0,VALID,20.1513,VALID,33,VALID,0,
2013-04-08, 00:04:04,VALID,917.228,VALID,0,VALID,95.186,VALID,0,VALID,20.1513,VALID,33,VALID,0,
2013-04-08, 00:05:04,VALID,917.229,VALID,0,VALID,95.2088,VALID,0,VALID,20.1513,VALID,33,VALID,0,
2013-04-08, 00:06:04,VALID,917.181,VALID,0,VALID,95.247,VALID,0.107441,VALID,20.1303,VALID,104,VALID,0,
2013-04-08, 00:07:04,VALID,917.17,VALID,0,VALID,95.2851,VALID,0,VALID,20.1708,VALID,112,VALID,0,
2013-04-08, 00:08:04,VALID,917.159,VALID,0,VALID,95.2546,VALID,0,VALID,20.1513,VALID,112,VALID,0,
2013-04-08, 00:09:04,VALID,917.147,VALID,0,VALID,95.2698,VALID,0,VALID,20.1513,VALID,112,VALID,0,
2013-04-08, 00:10:04,VALID,917.144,VALID,0,VALID,95.247,VALID,0.107441,VALID,20.1724,VALID,112,VALID,0,
2013-04-08, 00:11:04,VALID,917.105,VALID,0,VALID,95.2775,VALID,0.107441,VALID,20.1513,VALID,112,VALID,0,
2013-04-08, 00:12:04,VALID,917.077,VALID,0,VALID,95.3308,VALID,0.107441,VALID,20.1724,VALID,112,VALID,0,
2013-04-08, 00:13:04,VALID,917.067,VALID,0,VALID,95.3079,VALID,0,VALID,20.1318,VALID,114,VALID,0,
2013-04-08, 00:14:04,VALID,917.048,VALID,0,VALID,95.2622,VALID,0,VALID,20.1349,VALID,114,VALID,0,
2013-04-08, 00:15:04,VALID,917.049,VALID,0,VALID,95.2775,VALID,0,VALID,20.1154,VALID,114,VALID,0,
2013-04-08, 00:16:04,VALID,917.013,VALID,0,VALID,95.3232,VALID,0,VALID,20.1154,VALID,115,VALID,0,
2013-04-08, 00:17:04,VALID,917.006,VALID,0,VALID,95.3308,VALID,0,VALID,20.0749,VALID,115,VALID,0,
2013-04-08, 00:18:04,VALID,916.94,VALID,0,VALID,95.3689,VALID,0,VALID,20.1154,VALID,115,VALID,0,
2013-04-08, 00:19:04,VALID,916.918,VALID,0,VALID,95.3994,VALID,0,VALID,20.1154,VALID,121,VALID,0,
2013-04-08, 00:20:04,VALID,916.901,VALID,0,VALID,95.4071,VALID,0,VALID,20.1349,VALID,133,VALID,0,
2013-04-08, 00:21:04,VALID,916.839,VALID,0,VALID,95.3842,VALID,0,VALID,20.1544,VALID,135,VALID,0,
2013-04-08, 00:22:04,VALID,916.819,VALID,0,VALID,95.3689,VALID,0,VALID,20.1739,VALID,135,VALID,0,
2013-04-08, 00:23:04,VALID,916.775,VALID,0,VALID,95.3156,VALID,0,VALID,20.1529,VALID,135,VALID,0,
2013-04-08, 00:24:04,VALID,916.76,VALID,0,VALID,95.247,VALID,0,VALID,20.1544,VALID,135,VALID,0,
2013-04-08, 00:25:04,VALID,916.765,VALID,0,VALID,95.2546,VALID,0,VALID,20.1544,VALID,133,VALID,0,
2013-04-08, 00:26:04,VALID,916.713,VALID,0,VALID,95.247,VALID,0,VALID,20.1529,VALID,133,VALID,0,
2013-04-08, 00:27:04,VALID,916.681,VALID,0,VALID,95.2622,VALID,0,VALID,20.1934,VALID,136,VALID,0,
2013-04-08, 00:28:04,VALID,916.703,VALID,0,VALID,95.2165,VALID,0,VALID,20.1724,VALID,136,VALID,0,
2013-04-08, 00:29:04,VALID,916.662,VALID,0,VALID,95.1402,VALID,0,VALID,20.1934,VALID,142,VALID,0,
2013-04-08, 00:30:04,VALID,916.67,VALID,0,VALID,95.1174,VALID,0,VALID,20.1739,VALID,170,VALID,0,
2013-04-08, 00:31:04,VALID,916.602,VALID,0,VALID,95.1174,VALID,0,VALID,20.1334,VALID,168,VALID,0,
2013-04-08, 00:32:04,VALID,916.625,VALID,0,VALID,95.1021,VALID,0,VALID,20.1334,VALID,170,VALID,0,
2013-04-08, 00:33:04,VALID,916.597,VALID,0,VALID,95.1097,VALID,0,VALID,20.1349,VALID,170,VALID,0,
2013-04-08, 00:34:04,VALID,916.584,VALID,0,VALID,95.125,VALID,0,VALID,20.1139,VALID,170,VALID,0,
2013-04-08, 00:35:04,VALID,916.525,VALID,0,VALID,95.1707,VALID,0,VALID,20.1139,VALID,170,VALID,0,
2013-04-08, 00:36:04,VALID,916.54,VALID,0,VALID,95.1783,VALID,0,VALID,20.1349,VALID,170,VALID,0,
2013-04-08, 00:37:04,VALID,916.526,VALID,0,VALID,95.2088,VALID,0,VALID,20.0944,VALID,170,VALID,0,
2013-04-08, 00:38:04,VALID,916.502,VALID,0,VALID,95.2241,VALID,0,VALID,20.0944,VALID,170,VALID,0,
2013-04-08, 00:39:04,VALID,916.492,VALID,0,VALID,95.2851,VALID,0,VALID,20.1154,VALID,170,VALID,0,
2013-04-08, 00:40:04,VALID,916.454,VALID,0,VALID,95.3079,VALID,0,VALID,20.1154,VALID,170,VALID,0,
2013-04-08, 00:41:04,VALID,916.422,VALID,0,VALID,95.3384,VALID,0,VALID,20.1154,VALID,170,VALID,0,
2013-04-08, 00:42:04,VALID,916.43,VALID,0,VALID,95.3461,VALID,0,VALID,20.1349,VALID,170,VALID,0,
2013-04-08, 00:43:04,VALID,916.374,VALID,0,VALID,95.3766,VALID,0,VALID,20.1349,VALID,170,VALID,0,
2013-04-08, 00:44:04,VALID,916.323,VALID,0,VALID,95.3537,VALID,0,VALID,20.1334,VALID,170,VALID,0,
2013-04-08, 00:45:04,VALID,916.334,VALID,0,VALID,95.2927,VALID,0,VALID,20.1154,VALID,170,VALID,0,
2013-04-08, 00:46:04,VALID,916.277,VALID,0,VALID,95.2698,VALID,0,VALID,20.0944,VALID,170,VALID,0,
2013-04-08, 00:47:05,VALID,916.256,VALID,0,VALID,95.2546,VALID,0,VALID,20.0749,VALID,170,VALID,0,
2013-04-08, 00:48:05,VALID,916.259,VALID,0,VALID,95.2698,VALID,0,VALID,20.0749,VALID,170,VALID,0,
2013-04-08, 00:49:05,VALID,916.248,VALID,0,VALID,95.2241,VALID,0,VALID,20.0343,VALID,170,VALID,0,
2013-04-08, 00:50:05,VALID,916.223,VALID,0,VALID,95.186,VALID,0,VALID,20.0163,VALID,170,VALID,0,
2013-04-08, 00:51:05,VALID,916.211,VALID,0,VALID,95.2698,VALID,0,VALID,20.0163,VALID,137,VALID,0,
2013-04-08, 00:52:05,VALID,916.206,VALID,0,VALID,95.3842,VALID,0,VALID,20.0163,VALID,117,VALID,0,
2013-04-08, 00:53:05,VALID,916.187,VALID,0,VALID,95.3918,VALID,0,VALID,19.9968,VALID,117,VALID,0,
2013-04-08, 00:54:05,VALID,916.169,VALID,0,VALID,95.3842,VALID,0,VALID,19.9773,VALID,117,VALID,0,
2013-04-08, 00:55:05,VALID,916.181,VALID,0,VALID,95.3613,VALID,0,VALID,19.9383,VALID,117,VALID,0,
2013-04-08, 00:56:05,VALID,916.148,VALID,0,VALID,95.3461,VALID,0,VALID,19.9188,VALID,117,VALID,0,
2013-04-08, 00:57:05,VALID,916.142,VALID,0,VALID,95.3842,VALID,0,VALID,19.8603,VALID,117,VALID,0,
2013-04-08, 00:58:05,VALID,916.125,VALID,0,VALID,95.468,VALID,0,VALID,19.8603,VALID,118,VALID,0,
2013-04-08, 00:59:05,VALID,916.087,VALID,0,VALID,95.468,VALID,0,VALID,19.8408,VALID,117,VALID,0,
2013-04-08, 01:00:05,VALID,916.09,VALID,0,VALID,95.5748,VALID,0,VALID,19.8018,VALID,117,VALID,0,
2013-04-08, 01:01:05,VALID,916.051,VALID,0,VALID,95.5976,VALID,0,VALID,19.8033,VALID,117,VALID,0,
2013-04-08, 01:02:05,VALID,916.051,VALID,0,VALID,95.7272,VALID,0,VALID,19.7628,VALID,117,VALID,0,
2013-04-08, 01:03:05,VALID,916.012,VALID,0,VALID,95.7958,VALID,0,VALID,19.7838,VALID,117,VALID,0,
2013-04-08, 01:04:05,VALID,915.988,VALID,0,VALID,95.8111,VALID,0,VALID,19.7628,VALID,117,VALID,0,
2013-04-08, 01:05:05,VALID,915.958,VALID,0,VALID,95.8645,VALID,0,VALID,19.7433,VALID,117,VALID,0,
2013-04-08, 01:06:05,VALID,915.935,VALID,0,VALID,95.8797,VALID,0,VALID,19.7043,VALID,117,VALID,0,
2013-04-08, 01:07:05,VALID,915.89,VALID,0,VALID,95.9559,VALID,0,VALID,19.7238,VALID,117,VALID,0,
2013-04-08, 01:08:05,VALID,915.864,VALID,0,VALID,96.0017,VALID,0,VALID,19.7253,VALID,117,VALID,0,
2013-04-08, 01:09:05,VALID,915.8,VALID,0,VALID,96.0245,VALID,0,VALID,19.7043,VALID,117,VALID,0,
2013-04-08, 01:10:05,VALID,915.802,VALID,0,VALID,96.0322,VALID,0,VALID,19.6848,VALID,117,VALID,0,
2013-04-08, 01:11:05,VALID,915.786,VALID,0,VALID,96.055,VALID,0,VALID,19.6848,VALID,117,VALID,0,
2013-04-08, 01:12:05,VALID,915.774,VALID,0,VALID,96.055,VALID,0,VALID,19.6863,VALID,117,VALID,0,
2013-04-08, 01:13:05,VALID,915.745,VALID,0,VALID,96.0627,VALID,0,VALID,19.6458,VALID,117,VALID,0,
2013-04-08, 01:14:05,VALID,915.717,VALID,0,VALID,96.0932,VALID,0,VALID,19.6068,VALID,117,VALID,0,
2013-04-08, 01:15:05,VALID,915.702,VALID,0,VALID,96.0932,VALID,0,VALID,19.6068,VALID,117,VALID,0,
2013-04-08, 01:16:05,VALID,915.701,VALID,0,VALID,96.1465,VALID,0,VALID,19.6068,VALID,118,VALID,0,
2013-04-08, 01:17:05,VALID,915.676,VALID,0,VALID,96.177,VALID,0,VALID,19.6068,VALID,117,VALID,0,
2013-04-08, 01:18:05,VALID,915.62,VALID,0,VALID,96.1999,VALID,0,VALID,19.5873,VALID,117,VALID,0,
2013-04-08, 01:19:05,VALID,915.64,VALID,0,VALID,96.1923,VALID,0,VALID,19.5873,VALID,117,VALID,0,
2013-04-08, 01:20:05,VALID,915.622,VALID,0,VALID,96.2075,VALID,0,VALID,19.5888,VALID,117,VALID,0,
2013-04-08, 01:21:05,VALID,915.603,VALID,0,VALID,96.1999,VALID,0,VALID,19.5678,VALID,117,VALID,0,
2013-04-08, 01:22:05,VALID,915.576,VALID,0,VALID,96.238,VALID,0,VALID,19.5678,VALID,117,VALID,0,
2013-04-08, 01:23:05,VALID,915.543,VALID,0,VALID,96.2761,VALID,0,VALID,19.5888,VALID,117,VALID,0,
2013-04-08, 01:24:05,VALID,915.533,VALID,0,VALID,96.2609,VALID,0,VALID,19.5873,VALID,117,VALID,0,
2013-04-08, 01:25:05,VALID,915.517,VALID,0,VALID,96.2228,VALID,0,VALID,19.5483,VALID,117,VALID,0,
2013-04-08, 01:26:05,VALID,915.448,VALID,0,VALID,96.177,VALID,0,VALID,19.5093,VALID,117,VALID,0,
2013-04-08, 01:27:05,VALID,915.44,VALID,0,VALID,96.299,VALID,0,VALID,19.5483,VALID,118,VALID,0,
2013-04-08, 01:28:05,VALID,915.411,VALID,0,VALID,96.3676,VALID,0,VALID,19.5678,VALID,117,VALID,0,
2013-04-08, 01:29:05,VALID,915.399,VALID,0,VALID,96.3905,VALID,0,VALID,19.5663,VALID,118,VALID,0,
2013-04-08, 01:30:05,VALID,915.364,VALID,0,VALID,96.3981,VALID,0,VALID,19.5873,VALID,117,VALID,0,
2013-04-08, 01:31:05,VALID,915.345,VALID,0,VALID,96.4286,VALID,0,VALID,19.5858,VALID,117,VALID,0,
2013-04-08, 01:32:05,VALID,915.327,VALID,0,VALID,96.4438,VALID,0,VALID,19.5663,VALID,117,VALID,0,
2013-04-08, 01:33:05,VALID,915.313,VALID,0,VALID,96.421,VALID,0,VALID,19.5483,VALID,117,VALID,0,
2013-04-08, 01:34:05,VALID,915.296,VALID,0,VALID,96.3752,VALID,0,VALID,19.4883,VALID,118,VALID,0,
2013-04-08, 01:35:05,VALID,915.289,VALID,0,VALID,96.3829,VALID,0,VALID,19.4688,VALID,117,VALID,0,
2013-04-08, 01:36:05,VALID,915.244,VALID,0,VALID,96.3752,VALID,0,VALID,19.4493,VALID,118,VALID,0,
2013-04-08, 01:37:05,VALID,915.217,VALID,0,VALID,96.4515,VALID,0.107441,VALID,19.5288,VALID,117,VALID,0,
2013-04-08, 01:38:05,VALID,915.163,VALID,0,VALID,96.4591,VALID,0,VALID,19.5078,VALID,117,VALID,0,
2013-04-08, 01:39:05,VALID,915.153,VALID,0,VALID,96.4286,VALID,0.107441,VALID,19.5078,VALID,117,VALID,0,
2013-04-08, 01:40:05,VALID,915.148,VALID,0,VALID,96.3905,VALID,0,VALID,19.5078,VALID,117,VALID,0,
2013-04-08, 01:41:05,VALID,915.106,VALID,0,VALID,96.3829,VALID,0.107441,VALID,19.5078,VALID,117,VALID,0,
2013-04-08, 01:42:05,VALID,915.072,VALID,0,VALID,96.3142,VALID,0,VALID,19.4703,VALID,117,VALID,0,
2013-04-08, 01:43:05,VALID,915.07,VALID,0,VALID,96.2761,VALID,0,VALID,19.4688,VALID,120,VALID,0,
2013-04-08, 01:44:05,VALID,915.052,VALID,0,VALID,96.2685,VALID,0.107441,VALID,19.4688,VALID,136,VALID,0,
2013-04-08, 01:45:05,VALID,915.026,VALID,0,VALID,96.299,VALID,0,VALID,19.5288,VALID,136,VALID,0,
2013-04-08, 01:46:05,VALID,914.995,VALID,0,VALID,96.3219,VALID,0,VALID,19.5468,VALID,136,VALID,0,
2013-04-08, 01:47:05,VALID,914.978,VALID,0,VALID,96.299,VALID,0,VALID,19.5663,VALID,136,VALID,0,
2013-04-08, 01:48:05,VALID,914.992,VALID,0,VALID,96.2609,VALID,0,VALID,19.5873,VALID,136,VALID,0,
2013-04-08, 01:49:05,VALID,914.986,VALID,0,VALID,96.2151,VALID,0,VALID,19.5468,VALID,136,VALID,0,
2013-04-08, 01:50:05,VALID,914.962,VALID,0,VALID,95.9788,VALID,0,VALID,19.5093,VALID,136,VALID,0,
2013-04-08, 01:51:05,VALID,914.948,VALID,0,VALID,95.8111,VALID,0,VALID,19.4493,VALID,136,VALID,0,
2013-04-08, 01:52:05,VALID,914.941,VALID,0,VALID,95.7806,VALID,0.107441,VALID,19.4298,VALID,136,VALID,0,
2013-04-08, 01:53:05,VALID,914.921,VALID,0,VALID,95.8721,VALID,0.107441,VALID,19.4493,VALID,136,VALID,0,
2013-04-08, 01:54:05,VALID,914.911,VALID,0,VALID,95.9102,VALID,0.107441,VALID,19.4688,VALID,136,VALID,0,
2013-04-08, 01:55:05,VALID,914.916,VALID,0,VALID,95.9331,VALID,0,VALID,19.4883,VALID,136,VALID,0,
2013-04-08, 01:56:05,VALID,914.893,VALID,0,VALID,95.9712,VALID,0,VALID,19.5078,VALID,136,VALID,0,
2013-04-08, 01:57:05,VALID,914.89,VALID,0,VALID,95.9331,VALID,0,VALID,19.5273,VALID,136,VALID,0,
2013-04-08, 01:58:05,VALID,914.897,VALID,0,VALID,95.6434,VALID,0,VALID,19.5288,VALID,136,VALID,0,
2013-04-08, 01:59:05,VALID,914.873,VALID,0,VALID,95.6053,VALID,0,VALID,19.5093,VALID,136,VALID,0,
2013-04-08, 02:00:05,VALID,914.874,VALID,0,VALID,95.651,VALID,0,VALID,19.5288,VALID,136,VALID,0,
2013-04-08, 02:01:05,VALID,914.869,VALID,0,VALID,95.59,VALID,0,VALID,19.5273,VALID,135,VALID,0,
2013-04-08, 02:02:05,VALID,914.872,VALID,0,VALID,95.529,VALID,0,VALID,19.5288,VALID,135,VALID,0,
2013-04-08, 02:03:05,VALID,914.862,VALID,0,VALID,95.4604,VALID,0,VALID,19.5288,VALID,135,VALID,0,
2013-04-08, 02:04:05,VALID,914.834,VALID,0,VALID,95.4071,VALID,0,VALID,19.5093,VALID,134,VALID,0,
2013-04-08, 02:05:05,VALID,914.817,VALID,0,VALID,95.2622,VALID,0,VALID,19.4703,VALID,135,VALID,0,
2013-04-08, 02:06:05,VALID,914.829,VALID,0,VALID,95.2317,VALID,0,VALID,19.4508,VALID,135,VALID,0,
2013-04-08, 02:07:05,VALID,914.773,VALID,0,VALID,95.1707,VALID,0,VALID,19.4298,VALID,134,VALID,0,
2013-04-08, 02:08:05,VALID,914.741,VALID,0,VALID,95.1555,VALID,0,VALID,19.4313,VALID,135,VALID,0,
2013-04-08, 02:09:05,VALID,914.724,VALID,0,VALID,95.1326,VALID,0.107441,VALID,19.3908,VALID,135,VALID,0,
2013-04-08, 02:10:05,VALID,914.735,VALID,0,VALID,95.1326,VALID,0,VALID,19.3728,VALID,134,VALID,0,
2013-04-08, 02:11:05,VALID,914.684,VALID,0,VALID,95.0564,VALID,0,VALID,19.3338,VALID,135,VALID,0,
2013-04-08, 02:12:05,VALID,914.657,VALID,0,VALID,95.3156,VALID,0.107441,VALID,19.3533,VALID,135,VALID,0,
2013-04-08, 02:13:05,VALID,914.664,VALID,0,VALID,95.5824,VALID,0.107441,VALID,19.4118,VALID,135,VALID,0,
2013-04-08, 02:14:05,VALID,914.664,VALID,0,VALID,95.5138,VALID,0,VALID,19.3728,VALID,135,VALID,0,
2013-04-08, 02:15:05,VALID,914.65,VALID,0,VALID,95.529,VALID,0,VALID,19.3728,VALID,135,VALID,0,
2013-04-08, 02:16:05,VALID,914.636,VALID,0,VALID,95.6739,VALID,0,VALID,19.4313,VALID,135,VALID,0,
2013-04-08, 02:17:05,VALID,914.637,VALID,0,VALID,95.7654,VALID,0,VALID,19.4523,VALID,135,VALID,0,
2013-04-08, 02:18:05,VALID,914.568,VALID,0,VALID,95.7044,VALID,0,VALID,19.4913,VALID,47,VALID,0,
2013-04-08, 02:19:05,VALID,914.596,VALID,0,VALID,95.5214,VALID,0,VALID,19.4508,VALID,47,VALID,0,
2013-04-08, 02:20:05,VALID,914.598,VALID,0,VALID,95.4147,VALID,0,VALID,19.4523,VALID,152,VALID,0,
2013-04-08, 02:21:05,VALID,914.585,VALID,0,VALID,95.4071,VALID,0,VALID,19.4118,VALID,153,VALID,0,
2013-04-08, 02:22:05,VALID,914.586,VALID,0,VALID,95.4071,VALID,0,VALID,19.4327,VALID,153,VALID,0,
2013-04-08, 02:23:05,VALID,914.566,VALID,0,VALID,95.529,VALID,0,VALID,19.4508,VALID,153,VALID,0,
2013-04-08, 02:24:05,VALID,914.561,VALID,0,VALID,95.5519,VALID,0,VALID,19.4703,VALID,153,VALID,0,
2013-04-08, 02:25:05,VALID,914.553,VALID,0,VALID,95.2241,VALID,0,VALID,19.4313,VALID,153,VALID,0,
2013-04-08, 02:26:05,VALID,914.522,VALID,0,VALID,95.3079,VALID,0,VALID,19.4327,VALID,153,VALID,0,
2013-04-08, 02:27:05,VALID,914.541,VALID,0,VALID,95.3613,VALID,0,VALID,19.4718,VALID,153,VALID,0,
2013-04-08, 02:28:05,VALID,914.552,VALID,0,VALID,95.1326,VALID,0,VALID,19.4508,VALID,153,VALID,0,
2013-04-08, 02:29:05,VALID,914.526,VALID,0,VALID,94.8963,VALID,0,VALID,19.4132,VALID,153,VALID,0,
2013-04-08, 02:30:05,VALID,914.572,VALID,0,VALID,94.8353,VALID,0,VALID,19.3742,VALID,153,VALID,0,
2013-04-08, 02:31:05,VALID,914.532,VALID,0,VALID,94.8277,VALID,0,VALID,19.3533,VALID,153,VALID,0,
2013-04-08, 02:32:05,VALID,914.532,VALID,0,VALID,94.8277,VALID,0,VALID,19.3547,VALID,153,VALID,0,
2013-04-08, 02:33:05,VALID,914.548,VALID,0,VALID,94.8429,VALID,0,VALID,19.3547,VALID,153,VALID,0,
2013-04-08, 02:34:05,VALID,914.525,VALID,0,VALID,94.8429,VALID,0,VALID,19.3338,VALID,153,VALID,0,
2013-04-08, 02:35:05,VALID,914.54,VALID,0,VALID,94.9115,VALID,0,VALID,19.3547,VALID,153,VALID,0,
2013-04-08, 02:36:05,VALID,914.516,VALID,0,VALID,94.9878,VALID,0,VALID,19.3728,VALID,153,VALID,0,
2013-04-08, 02:37:05,VALID,914.542,VALID,0,VALID,95.0259,VALID,0,VALID,19.3728,VALID,153,VALID,0,
2013-04-08, 02:38:05,VALID,914.55,VALID,0,VALID,95.0106,VALID,0,VALID,19.3923,VALID,153,VALID,0,
2013-04-08, 02:39:05,VALID,914.534,VALID,0,VALID,95.0488,VALID,0,VALID,19.4327,VALID,153,VALID,0,
2013-04-08, 02:40:05,VALID,914.512,VALID,0,VALID,95.0488,VALID,0,VALID,19.4523,VALID,153,VALID,0,
2013-04-08, 02:41:05,VALID,914.51,VALID,0,VALID,95.0411,VALID,0,VALID,19.4718,VALID,153,VALID,0,
2013-04-08, 02:42:05,VALID,914.508,VALID,0,VALID,94.9878,VALID,0,VALID,19.4913,VALID,153,VALID,0,
2013-04-08, 02:43:05,VALID,914.51,VALID,0,VALID,94.9115,VALID,0,VALID,19.4898,VALID,153,VALID,0,
2013-04-08, 02:44:05,VALID,914.537,VALID,0,VALID,94.8505,VALID,0,VALID,19.5303,VALID,153,VALID,0,
2013-04-08, 02:45:05,VALID,914.5,VALID,0,VALID,94.6447,VALID,0,VALID,19.5303,VALID,153,VALID,0,
2013-04-08, 02:46:05,VALID,914.517,VALID,0,VALID,94.6142,VALID,0,VALID,19.5093,VALID,153,VALID,0,
2013-04-08, 02:47:05,VALID,914.515,VALID,0,VALID,94.4846,VALID,0,VALID,19.4898,VALID,153,VALID,0,
2013-04-08, 02:48:05,VALID,914.521,VALID,0,VALID,94.4465,VALID,0,VALID,19.4898,VALID,153,VALID,0,
2013-04-08, 02:49:05,VALID,914.505,VALID,0,VALID,94.5304,VALID,0,VALID,19.5108,VALID,153,VALID,0,
2013-04-08, 02:50:05,VALID,914.499,VALID,0,VALID,94.416,VALID,0,VALID,19.5108,VALID,153,VALID,0,
2013-04-08, 02:51:05,VALID,914.495,VALID,0,VALID,94.416,VALID,0,VALID,19.4913,VALID,153,VALID,0,
2013-04-08, 02:52:05,VALID,914.516,VALID,0,VALID,94.4389,VALID,0,VALID,19.4913,VALID,153,VALID,0,
2013-04-08, 02:53:05,VALID,914.507,VALID,0,VALID,94.5761,VALID,0,VALID,19.4913,VALID,153,VALID,0,
2013-04-08, 02:54:05,VALID,914.527,VALID,0,VALID,94.6523,VALID,0,VALID,19.4898,VALID,153,VALID,0,
2013-04-08, 02:55:05,VALID,914.487,VALID,0,VALID,94.6142,VALID,0,VALID,19.4898,VALID,153,VALID,0,
2013-04-08, 02:56:05,VALID,914.499,VALID,0,VALID,94.5609,VALID,0,VALID,19.5108,VALID,153,VALID,0,
2013-04-08, 02:57:05,VALID,914.489,VALID,0,VALID,94.5685,VALID,0,VALID,19.5108,VALID,153,VALID,0,
2013-04-08, 02:58:05,VALID,914.496,VALID,0,VALID,94.5227,VALID,0,VALID,19.4913,VALID,153,VALID,0,
2013-04-08, 02:59:05,VALID,914.503,VALID,0,VALID,94.5532,VALID,0,VALID,19.4688,VALID,153,VALID,0,
2013-04-08, 03:00:05,VALID,914.476,VALID,0,VALID,94.599,VALID,0,VALID,19.4898,VALID,153,VALID,0,
2013-04-08, 03:01:05,VALID,914.466,VALID,0,VALID,94.6218,VALID,0.107441,VALID,19.5093,VALID,153,VALID,0,
2013-04-08, 03:02:05,VALID,914.457,VALID,0,VALID,94.6447,VALID,0.107441,VALID,19.4883,VALID,153,VALID,0,
2013-04-08, 03:03:05,VALID,914.451,VALID,0,VALID,94.7286,VALID,0.107441,VALID,19.5078,VALID,153,VALID,0,
2013-04-08, 03:04:05,VALID,914.429,VALID,0,VALID,94.7667,VALID,0,VALID,19.5483,VALID,153,VALID,0,
2013-04-08, 03:05:05,VALID,914.433,VALID,0,VALID,94.7667,VALID,0.107441,VALID,19.5678,VALID,153,VALID,0,
2013-04-08, 03:06:05,VALID,914.399,VALID,0,VALID,94.5837,VALID,0.107441,VALID,19.5468,VALID,153,VALID,0,
2013-04-08, 03:07:05,VALID,914.43,VALID,0,VALID,94.477,VALID,0,VALID,19.5288,VALID,153,VALID,0,
2013-04-08, 03:08:05,VALID,914.409,VALID,0,VALID,94.3398,VALID,0,VALID,19.5093,VALID,153,VALID,0,
2013-04-08, 03:09:05,VALID,914.419,VALID,0,VALID,94.4999,VALID,0.107441,VALID,19.4883,VALID,44,VALID,0,
2013-04-08, 03:10:05,VALID,914.391,VALID,0,VALID,94.4084,VALID,0,VALID,19.5078,VALID,25,VALID,0,
2013-04-08, 03:11:05,VALID,914.398,VALID,0,VALID,94.1949,VALID,0,VALID,19.5483,VALID,25,VALID,0,
2013-04-08, 03:12:05,VALID,914.35,VALID,0,VALID,94.0348,VALID,0,VALID,19.5483,VALID,25,VALID,0,
2013-04-08, 03:13:05,VALID,914.368,VALID,0,VALID,94.012,VALID,0.107441,VALID,19.5483,VALID,25,VALID,0,
2013-04-08, 03:14:05,VALID,914.372,VALID,0,VALID,93.9738,VALID,0,VALID,19.5483,VALID,25,VALID,0,
2013-04-08, 03:15:05,VALID,914.355,VALID,0,VALID,93.9281,VALID,0,VALID,19.5678,VALID,25,VALID,0,
2013-04-08, 03:16:05,VALID,914.388,VALID,0,VALID,93.8595,VALID,0,VALID,19.5888,VALID,25,VALID,0,
2013-04-08, 03:17:05,VALID,914.349,VALID,0,VALID,93.7299,VALID,0,VALID,19.5888,VALID,25,VALID,0,
2013-04-08, 03:18:05,VALID,914.361,VALID,0,VALID,93.6003,VALID,0,VALID,19.5873,VALID,25,VALID,0,
2013-04-08, 03:19:05,VALID,914.373,VALID,0,VALID,93.4555,VALID,0,VALID,19.5888,VALID,25,VALID,0,
2013-04-08, 03:20:05,VALID,914.351,VALID,0,VALID,93.3182,VALID,0,VALID,19.5678,VALID,25,VALID,0,
2013-04-08, 03:21:05,VALID,914.34,VALID,0,VALID,93.2877,VALID,0,VALID,19.5888,VALID,25,VALID,0,
2013-04-08, 03:22:05,VALID,914.334,VALID,0,VALID,93.4021,VALID,0,VALID,19.5678,VALID,21,VALID,0,
2013-04-08, 03:23:05,VALID,914.299,VALID,0,VALID,93.1581,VALID,0,VALID,19.6458,VALID,14,VALID,0,
2013-04-08, 03:24:05,VALID,914.266,VALID,0,VALID,92.9904,VALID,0,VALID,19.7253,VALID,14,VALID,0,
2013-04-08, 03:25:05,VALID,914.331,VALID,0,VALID,92.7312,VALID,0,VALID,19.7643,VALID,14,VALID,0,
2013-04-08, 03:26:05,VALID,914.331,VALID,0,VALID,92.472,VALID,0,VALID,19.7823,VALID,14,VALID,0,
2013-04-08, 03:27:05,VALID,914.347,VALID,0,VALID,92.2052,VALID,0,VALID,19.8033,VALID,14,VALID,0,
2013-04-08, 03:28:04,VALID,914.325,VALID,0,VALID,92.0756,VALID,0,VALID,19.8018,VALID,348,VALID,0,
2013-04-08, 03:29:04,VALID,914.347,VALID,0,VALID,91.9765,VALID,0,VALID,19.8213,VALID,349,VALID,0,
2013-04-08, 03:30:04,VALID,914.353,VALID,0,VALID,91.7859,VALID,0,VALID,19.8423,VALID,349,VALID,0,
2013-04-08, 03:31:04,VALID,914.344,VALID,0,VALID,91.6487,VALID,0,VALID,19.8408,VALID,360,VALID,0,
2013-04-08, 03:32:04,VALID,914.369,VALID,0,VALID,91.4734,VALID,0,VALID,19.8618,VALID,360,VALID,0,
2013-04-08, 03:33:04,VALID,914.38,VALID,0,VALID,91.4886,VALID,0,VALID,19.8408,VALID,360,VALID,0,
2013-04-08, 03:34:04,VALID,914.355,VALID,0,VALID,91.4352,VALID,0,VALID,19.8618,VALID,360,VALID,0,
2013-04-08, 03:35:04,VALID,914.397,VALID,0,VALID,91.4505,VALID,0,VALID,19.8423,VALID,360,VALID,0,
2013-04-08, 03:36:04,VALID,914.355,VALID,0,VALID,91.542,VALID,0,VALID,19.8408,VALID,360,VALID,0,
2013-04-08, 03:37:04,VALID,914.374,VALID,0,VALID,91.2447,VALID,0,VALID,19.8618,VALID,360,VALID,0,
2013-04-08, 03:38:04,VALID,914.375,VALID,0,VALID,91.4657,VALID,0,VALID,19.8603,VALID,359,VALID,0,
2013-04-08, 03:39:04,VALID,914.39,VALID,0,VALID,91.298,VALID,0,VALID,19.9203,VALID,353,VALID,0,
2013-04-08, 03:40:04,VALID,914.38,VALID,0,VALID,91.2066,VALID,0,VALID,19.9188,VALID,350,VALID,0,
2013-04-08, 03:41:04,VALID,914.401,VALID,0,VALID,91.0312,VALID,0,VALID,19.9968,VALID,355,VALID,0,
2013-04-08, 03:42:04,VALID,914.396,VALID,0,VALID,90.7339,VALID,0,VALID,19.9968,VALID,357,VALID,0,
2013-04-08, 03:43:04,VALID,914.427,VALID,0,VALID,90.7949,VALID,0,VALID,20.0374,VALID,356,VALID,0,
2013-04-08, 03:44:04,VALID,914.401,VALID,0,VALID,90.955,VALID,0,VALID,19.9968,VALID,346,VALID,0,
2013-04-08, 03:45:04,VALID,914.389,VALID,0,VALID,91.0465,VALID,0,VALID,19.9773,VALID,2,VALID,0,
2013-04-08, 03:46:04,VALID,914.401,VALID,0,VALID,91.1456,VALID,0,VALID,19.9368,VALID,2,VALID,0,
2013-04-08, 03:47:04,VALID,914.397,VALID,0,VALID,91.2142,VALID,0,VALID,19.9188,VALID,2,VALID,0,
2013-04-08, 03:48:04,VALID,914.403,VALID,0,VALID,91.3361,VALID,0,VALID,19.9173,VALID,2,VALID,0,
2013-04-08, 03:49:04,VALID,914.429,VALID,0,VALID,91.2447,VALID,0,VALID,19.9173,VALID,2,VALID,0,
2013-04-08, 03:50:04,VALID,914.45,VALID,0,VALID,91.298,VALID,0,VALID,19.9173,VALID,2,VALID,0,
2013-04-08, 03:51:04,VALID,914.448,VALID,0,VALID,91.359,VALID,0.107441,VALID,19.8783,VALID,2,VALID,0,
2013-04-08, 03:52:04,VALID,914.452,VALID,0,VALID,91.4276,VALID,0,VALID,19.8588,VALID,2,VALID,0,
2013-04-08, 03:53:04,VALID,914.46,VALID,0,VALID,91.7173,VALID,0,VALID,19.8408,VALID,3,VALID,0,
2013-04-08, 03:54:04,VALID,914.443,VALID,0,VALID,91.6945,VALID,0,VALID,19.8603,VALID,3,VALID,0,
2013-04-08, 03:55:04,VALID,914.47,VALID,0,VALID,91.42,VALID,0,VALID,19.9188,VALID,3,VALID,0,
2013-04-08, 03:56:04,VALID,914.442,VALID,0,VALID,91.3209,VALID,0,VALID,19.9368,VALID,3,VALID,0,
2013-04-08, 03:57:04,VALID,914.401,VALID,0,VALID,91.1989,VALID,0,VALID,19.9578,VALID,3,VALID,0,
2013-04-08, 03:58:04,VALID,914.461,VALID,0,VALID,91.3209,VALID,0.107441,VALID,19.9383,VALID,4,VALID,0,
2013-04-08, 03:59:04,VALID,914.436,VALID,0,VALID,91.2904,VALID,0,VALID,19.9203,VALID,8,VALID,0,